CW0262 Weather Reports


Display with metric or nautical units.
time (UTC)temp
F
wind
direction
speed
MPH
gust
MPH
rain 1hr
in
rain 24hr
in
rain mn
in
humidity
%
barometer
mb
20260504001703 72 66 6.0 9.0 0.00 0.83 0.83 100 1015.2
20260504000704 72 63 5.0 8.0 0.00 0.83 0.83 100 1015.2
20260504000205 72 86 5.0 9.0 0.00 0.83 0.83 100 1015.2
20260503234203 71 79 4.0 8.0 0.00 0.83 0.83 100 1014.2
20260503233204 71 80 5.0 8.0 0.00 0.83 0.83 100 1014.2
20260503231706 71 65 5.0 8.0 0.00 0.83 0.83 100 1014.2
20260503231203 71 79 5.0 9.0 0.00 0.83 0.83 100 1014.2
20260503230704 71 78 6.0 9.0 0.00 0.83 0.83 100 1014.2
20260503230204 71 50 7.0 12.0 0.00 0.83 0.83 100 1014.2
20260503224705 72 73 6.0 10.0 0.00 0.83 0.83 100 1014.2
20260503224204 71 69 6.0 8.0 0.00 0.83 0.83 100 1014.2
20260503223704 72 46 6.0 8.0 0.00 0.83 0.83 100 1014.2
20260503223204 71 53 6.0 9.0 0.00 0.83 0.83 100 1014.2
20260503221703 71 60 5.0 8.0 0.00 0.83 0.83 100 1015.2
20260503220704 72 52 5.0 9.0 0.00 0.83 0.83 100 1014.2
20260503220204 72 68 6.0 13.0 0.00 0.83 0.83 100 1014.2
20260503214703 72 57 6.0 9.0 0.00 0.83 0.83 100 1014.2
20260503214204 71 52 9.0 12.0 0.00 0.83 0.83 100 1014.2
20260503213703 71 53 7.0 12.0 0.00 0.83 0.83 100 1014.2
20260503213204 71 60 7.0 13.0 0.00 0.83 0.83 100 1014.2
20260503211704 71 60 7.0 10.0 0.00 0.83 0.83 100 1015.2
20260503211205 71 48 7.0 13.0 0.04 0.83 0.83 100 1015.2
20260503210703 71 52 6.0 9.0 0.08 0.83 0.83 100 1015.2
20260503210204 71 59 5.0 12.0 0.12 0.83 0.83 100 1015.2
20260503204704 70 40 5.0 8.0 0.16 0.83 0.83 100 1015.2
20260503204204 70 57 6.0 9.0 0.16 0.83 0.83 100 1015.2
20260503203703 70 56 6.0 8.0 0.16 0.83 0.83 100 1015.2
20260503203204 70 24 3.0 8.0 0.24 0.83 0.83 100 1015.2
20260503201703 70 47 6.0 9.0 0.71 0.83 0.83 100 1015.2
20260503201205 70 64 5.0 9.0 0.67 0.79 0.79 100 1015.2
20260503200704 70 69 7.0 12.0 0.67 0.75 0.75 100 1015.2
20260503200204 70 36 5.0 8.0 0.67 0.71 0.71 100 1015.2
20260503194704 67 50 4.0 6.0 0.67 0.67 0.67 100 1015.2
20260503194204 67 44 6.0 9.0 0.67 0.67 0.67 100 1015.7
20260503193704 67 52 6.0 8.0 0.67 0.67 0.67 100 1016.2
20260503193205 67 37 5.0 12.0 0.59 0.59 0.59 100 1016.2
20260503191705 68 29 5.0 8.0 0.12 0.12 0.12 100 1016.2
20260503191204 68 27 2.0 3.0 0.12 0.12 0.12 100 1015.4
20260503190705 69 69 5.0 6.0 0.08 0.08 0.08 100 1015.2
20260503190205 69 28 5.0 8.0 0.04 0.04 0.04 100 1015.2
20260503184703 69 51 5.0 8.0 0.00 0.00 0.00 100 1015.2
20260503183704 70 66 3.0 8.0 0.00 0.00 0.00 100 1016.2
20260503183205 70 45 6.0 8.0 0.00 0.00 0.00 100 1016.2
20260503181704 70 39 5.0 8.0 0.00 0.00 0.00 100 1016.2
20260503181204 70 29 6.0 8.0 0.00 0.00 0.00 100 1016.2
20260503180704 70 49 7.0 10.0 0.00 0.00 0.00 100 1016.2
20260503180204 70 34 5.0 8.0 0.00 0.00 0.00 100 1016.2
20260503174705 71 55 6.0 10.0 0.00 0.00 0.00 100 1016.2
20260503174204 71 60 7.0 10.0 0.00 0.00 0.00 100 1016.2
20260503173204 71 56 7.0 10.0 0.00 0.00 0.00 99 1016.2
20260503171704 72 43 6.0 10.0 0.00 0.00 0.00 96 1016.2
20260503171204 72 58 5.0 8.0 0.00 0.00 0.00 97 1016.2
20260503170704 72 22 7.0 10.0 0.00 0.00 0.00 97 1016.2
20260503170204 72 34 7.0 10.0 0.00 0.00 0.00 95 1016.2
20260503160203 73 37 5.0 9.0 0.00 0.00 0.00 90 1016.2
20260503150704 74 47 6.0 8.0 0.00 0.00 0.00 87 1016.2
20260503150204 74 16 5.0 8.0 0.00 0.00 0.00 86 1016.2
20260503140204 71 14 5.0 7.0 0.00 0.00 0.00 97 1016.2
20260503131204 71 23 3.0 7.0 0.00 0.00 0.00 99 1015.2
20260503130705 71 24 4.0 9.0 0.00 0.00 0.00 98 1015.2
20260503120204 70 10 6.0 10.0 0.00 0.00 0.00 100 1014.2
20260503110703 69 16 2.0 3.0 0.00 0.00 0.00 100 1014.2
20260503110204 69 9 4.0 8.0 0.00 0.00 0.00 100 1014.2
20260503100205 69 1 3.0 10.0 0.00 0.00 0.00 100 1013.2
20260503090204 69 10 3.0 7.0 0.00 0.00 0.00 100 1013.2
20260503081205 69 339 5.0 6.0 0.00 0.00 0.00 100 1013.2
20260503080704 69 349 2.0 6.0 0.00 0.00 0.00 100 1013.2
20260503080204 69 353 3.0 8.0 0.00 0.00 0.00 100 1013.2
20260503071705 70 331 4.0 9.0 0.00 0.00 0.00 99 1013.2
20260503071207 70 340 5.0 6.0 0.00 0.00 0.00 99 1013.2
20260503070704 70 331 7.0 8.0 0.00 0.00 0.00 98 1013.2
20260503070204 70 349 3.0 9.0 0.00 0.00 0.00 98 1013.2
20260503060204 71 313 3.0 9.0 0.00 0.00 0.00 96 1013.2
20260503054704 71 284 6.0 8.0 0.00 0.00 0.00 97 1013.2
20260503054204 71 314 6.0 8.0 0.00 0.00 0.00 97 1013.2
20260503053704 71 332 4.0 8.0 0.00 0.00 0.00 99 1013.2
20260503051704 72 291 3.0 6.0 0.00 0.00 0.00 100 1014.2
20260503051204 72 285 5.0 9.0 0.00 0.00 0.00 100 1014.2
20260503050703 72 301 6.0 9.0 0.00 0.00 0.00 100 1014.2
20260503050205 73 296 7.0 12.0 0.00 0.00 0.00 100 1014.2
20260503044204 73 280 5.0 6.0 0.00 0.00 0.00 100 1013.2
20260503043704 73 266 5.0 6.0 0.00 0.00 0.00 100 1013.2
20260503043204 73 268 3.0 6.0 0.00 0.00 0.00 100 1013.2
20260503041705 74 251 4.0 8.0 0.00 0.00 0.00 97 1013.2
20260503041204 74 250 7.0 8.0 0.00 0.00 0.00 96 1012.4
20260503040205 75 232 7.0 12.0 0.00 0.00 0.00 93 1012.2
20260503034704 76 272 6.0 10.0 0.00 0.00 0.00 87 1013.2
20260503034203 76 278 7.0 10.0 0.00 0.00 0.00 84 1012.8
20260503033705 76 253 7.0 8.0 0.00 0.00 0.00 83 1012.2
20260503033204 76 240 7.0 8.0 0.00 0.00 0.00 82 1012.2
20260503031704 76 222 5.0 7.0 0.00 0.00 0.00 82 1011.2
20260503031204 76 230 3.0 6.0 0.00 0.00 0.00 82 1011.2
20260503030703 76 198 4.0 7.0 0.00 0.00 0.00 82 1011.2
20260503030203 76 182 5.0 8.0 0.00 0.00 0.00 81 1011.2
20260503024704 76 196 4.0 6.0 0.00 0.00 0.00 79 1011.2
20260503023204 77 186 2.0 6.0 0.00 0.00 0.00 77 1012.2
20260503021704 77 209 2.0 3.0 0.00 0.00 0.00 77 1012.2
20260503014704 77 220 0.0 3.0 0.00 0.00 0.00 75 1011.0
20260503014205 77 206 0.0 3.0 0.00 0.00 0.00 75 1011.0
20260503013704 77 264 1.0 3.0 0.00 0.00 0.00 75 1011.0
20260503013204 77 280 2.0 6.0 0.00 0.00 0.00 75 1011.0
20260503011703 77 298 5.0 8.0 0.00 0.00 0.00 75 1011.0
20260503011203 77 314 1.0 3.0 0.00 0.00 0.00 75 1011.0
20260503010204 77 311 8.0 10.0 0.00 0.00 0.00 75 1011.0
20260503004204 78 339 8.0 13.0 0.00 0.00 0.00 75 1011.0
20260503003704 78 315 7.0 9.0 0.00 0.00 0.00 75 1011.0
20260503003205 78 326 7.0 14.0 0.00 0.00 0.00 75 1011.0